This demonstration page uses our WeatherBlox Daily Observations layout. Learn more.

Left ArrowRight Arrow

36.17497, -115.13722

Hourly Observations for April 26, 2016

Temp ( °F °C ) Dew Point ( °F °C ) Humidity (%) Winds ( mph kmh ) Pressure ( in mb ) Visibility ( mi km ) Precip ( " mm )
12:53 am 00:53 Partly Cloudy 57 13.9 33 0.6 41 41 NNW 14 22 29.82 1010 10 16.0934 0 0
1:53 am 01:53 Clear 56 13.3 32 0 40 40 N 14 22 29.82 1010 10 16.0934 0 0
2:53 am 02:53 Clear 55 12.8 31 -0.6 40 40 NNW 17 28 29.82 1010 10 16.0934 0 0
3:53 am 03:53 Clear 54 12.2 31 -0.6 42 42 N 13 20 29.83 1010 10 16.0934 0 0
4:53 am 04:53 Clear 54 12.2 31 -0.6 42 42 NNW 21 33 29.83 1010 10 16.0934 0 0
5:53 am 05:53 Mostly Sunny 55 12.8 30 -1.1 38 38 NW 22 35 29.84 1011 10 16.0934 0 0
6:53 am 06:53 Sunny 56 13.3 30 -1.1 37 37 NNW 18 30 29.86 1011 10 16.0934 0 0
7:53 am 07:53 Sunny 60 15.6 30 -1.1 32 32 N 14 22 29.88 1012 10 16.0934 0 0
8:53 am 08:53 Sunny 62 16.7 29 -1.7 29 29 NNW 22 35 29.88 1012 10 16.0934 0 0
9:53 am 09:53 Sunny 64 17.8 29 -1.7 27 27 NNW 21 33 29.89 1012 10 16.0934 0 0
10:53 am 10:53 Sunny 66 18.9 30 -1.1 26 26 NNW 17 28 29.9 1012 10 16.0934 0 0
11:53 am 11:53 Sunny 69 20.6 30 -1.1 23 23 N 6 9 29.9 1012 10 16.0934 0 0
12:53 pm 12:53 Sunny 71 21.7 31 -0.6 23 23 N 9 15 29.88 1012 10 16.0934 0 0
1:53 pm 13:53 Sunny 72 22.2 31 -0.6 22 22 N 7 11 29.86 1011 10 16.0934 0 0
2:53 pm 14:53 Sunny 73 22.8 30 -1.1 20 20 undefined N/A 29.84 1011 10 16.0934 0 0
3:53 pm 15:53 Sunny 73 22.8 30 -1.1 20 20 SSW 9 15 29.83 1010 10 16.0934 0 0
4:53 pm 16:53 Mostly Sunny 74 23.3 30 -1.1 20 20 Calm 29.82 1010 10 16.0934 0 0
5:53 pm 17:53 Mostly Cloudy 74 23.3 30 -1.1 20 20 SSW 7 11 29.82 1010 10 16.0934 0 0
6:53 pm 18:53 Partly Cloudy 73 22.8 30 -1.1 20 20 SSE 5 7 29.81 1009 10 16.0934 0 0
7:53 pm 19:53 Clear 72 22.2 27 -2.8 19 19 WSW 13 20 29.8 1009 10 16.0934 0 0
8:53 pm 20:53 Clear 71 21.7 28 -2.2 20 20 SSW 12 19 29.81 1010 10 16.0934 0 0
9:53 pm 21:53 Clear 70 21.1 27 -2.8 20 20 SW 10 17 29.82 1010 10 16.0934 0 0
10:53 pm 22:53 Clear 69 20.6 27 -2.8 21 21 SSW 7 11 29.81 1010 10 16.0934 0 0
11:53 pm 23:53 Clear 67 19.4 30 -1.1 25 25 WSW 7 11 29.82 1010 10 16.0934 0 0

Powered by AerisWeather